Regional Weather Roundup
Issued by NWS

Home | Current Version | Previous Version | Graphics & Text | Print | Product List | Glossary On
Versions: 1 2 3 4 5 6 7 8 9 10 11 12 13 14 15 16 17 18 19 20 21 22 23 24 25 26 27
000
ASUS45 KCYS 221610
RWRWY

WYOMING REGIONAL WEATHER ROUNDUP
NATIONAL WEATHER SERVICE CHEYENNE WY
1000 AM MDT SAT APR 22 2017

NOTE:  "FAIR" INDICATES FEW OR NO CLOUDS BELOW 12,000 FEET
WITH NO SIGNIFICANT WEATHER AND/OR OBSTRUCTIONS TO VISIBILITY.

WYZ001-221700-
YELLOWSTONE NATIONAL PARK

CITY           SKY/WX    TMP DP  RH WIND       PRES   REMARKS
LK YELLOWSTONE   N/A     28  23  81 VRB3      30.27F
W YELLOWSTONE  NOT AVBL

$$
WYZ002>013-054>058-071-098>099-221700-
NORTHERN WYOMING

CITY           SKY/WX    TMP DP  RH WIND       PRES   REMARKS
JACKSON        SUNNY     36  27  69 CALM      30.28F
CODY           FAIR      41  33  73 E3        30.27F
GREYBULL       CLOUDY    42  37  82 S7        30.27F
WORLAND        CLOUDY    43  36  76 NW5       30.28S
SHERIDAN       CLOUDY    46  41  82 E5        30.27F
BUFFALO        CLOUDY    42  37  82 N8        30.27R
GILLETTE       CLOUDY    46  41  82 CALM      30.25S
HULETT         FAIR      50  37  62 CALM      30.25F
NEWCASTLE      PTSUNNY   50  34  53 SE6       30.27S

$$
WYZ014>020-022>026-101>103-221700-
CENTRAL WYOMING

CITY           SKY/WX    TMP DP  RH WIND       PRES   REMARKS
BIG PINEY      PTSUNNY   35  26  69 CALM      30.30R
PINEDALE       PTSUNNY   39  28  65 E10G17    30.29S WCI  32
DUBOIS         FAIR      39  21  48 CALM      30.24S
LANDER         FAIR      43  34  70 CALM      30.26F
RIVERTON       CLOUDY    41  34  76 CALM      30.28S
CASPER         CLOUDY    42  37  82 W8        30.27R
DOUGLAS        FAIR      44  36  73 CALM      30.27S

$$
WYZ021-027>030-104>119-221700-
SOUTHERN WYOMING

CITY           SKY/WX    TMP DP  RH WIND       PRES   REMARKS
EVANSTON       FAIR      37  25  61 NE5       30.26F WCI  33
KEMMERER         N/A     37  23  56 SE7       30.28S WCI  32
FORT BRIDGER   SUNNY     39  25  56 SE7       30.31R WCI  34
ROCK SPRINGS   FAIR      41  25  53 CALM      30.29S
DIXON            N/A     38  29  72 CALM      30.32F
RAWLINS        CLOUDY    38  27  64 VRB3      30.29S
SARATOGA       PTSUNNY   36  28  75 W5        30.30S WCI  32
LARAMIE        PTSUNNY   35  29  78 CALM      30.27S
CHEYENNE       CLOUDY    35  34  96 SW10      30.29R WCI  27
TORRINGTON     FAIR      52  39  61 S9        30.26S
PINE BLUFFS    FAIR      43  36  75 SW10G17   30.30R

$$




USA.gov is the U.S. government's official web portal to all federal, state and local government web resources and services.